Home > Weather > Porto Velho > Past weeks

Flag for Brazil Weather for the Past 2 Weeks in Porto Velho, Rondônia, Brazil

Now
84 °F

Scattered clouds.


Feels Like: 90 °F
Forecast: 76 / 88 °F
Wind: 2 mph from Southeast

Location: Porto Velho Aeroporto

Current Time: Feb 11, 2016 at 9:32:26 AM

Latest Report: Feb 11, 2016 at 9:00 AM


Visibility: N/A

Pressure: 29.95 "Hg

Humidity: 66%

Dew point: 72 °F

Location of Porto VelhoLocation

Historic Weather in Porto Velho — Graph

°F

Porto Velho Temperature Yesterday

Maximum temperature yesterday: 95 °F (at 2:00 PM)
Minimum temperature yesterday: 75 °F (at 6:00 AM)
Average temperature yesterday: 85 °F

High & Low Weather Summary for the Past Weeks

 TemperatureHumidityPressure
High95 °F (Feb 9, 1:00 PM)100% (Feb 1, 3:00 PM)29.98 "Hg (Feb 1, 3:00 PM)
Low45 °F (Feb 1, 3:00 PM)44% (Feb 9, 3:00 PM)29.71 "Hg (Jan 27, 5:00 PM)
Average81 °F80%29.85 "Hg
* Reported Jan 27 8:00 AM — Feb 11 8:00 AM, Porto Velho, Weather by CustomWeather, © 2016

Note: Actual official high and low records may vary slightly from our data, if they occured in-between our weather recording intervals... More about our weather records

Advertising

Porto Velho Weather History for the Previous 24 Hours

 ConditionsComfort  
Time TempWeatherWind HumidityBarometerVisibility
8:00 AM
Thu, Feb 11
82 °FScattered clouds.No wind79%29.95 "HgN/A
7:00 AM79 °FScattered clouds.3 mph84%29.89 "HgN/A
6:00 AM79 °FPartly cloudy.5 mph84%29.89 "HgN/A
5:00 AM79 °FPassing clouds.5 mph84%29.86 "HgN/A
4:00 AM79 °FPartly cloudy.2 mph89%29.86 "HgN/A
3:00 AM79 °FPartly cloudy.2 mph89%29.86 "HgN/A
2:00 AM81 °FPartly cloudy.12 mph84%29.86 "HgN/A
1:00 AM79 °FPartly cloudy.1 mph94%29.86 "HgN/A
12:00 AM79 °FPassing clouds.No wind89%29.86 "HgN/A
11:00 PM
Wed, Feb 10
81 °FPassing clouds.No wind89%29.89 "HgN/A
10:00 PM81 °FClear.No wind84%29.86 "Hg10 mi
9:00 PM81 °FPassing clouds.No wind84%29.86 "HgN/A
8:00 PM82 °FPassing clouds.No wind84%29.80 "HgN/A
7:00 PM86 °FPassing clouds.No wind70%29.80 "HgN/A
6:00 PM93 °FScattered clouds.3 mph49%29.77 "HgN/A
5:00 PM95 °FScattered clouds.6 mph47%29.74 "HgN/A
4:00 PM95 °FScattered clouds.7 mph44%29.74 "HgN/A
3:00 PM95 °FScattered clouds.5 mph50%29.77 "HgN/A
2:00 PM95 °FScattered clouds.No wind47%29.86 "HgN/A
1:00 PM93 °FPartly sunny.3 mph49%29.89 "HgN/A
12:00 PM93 °FPartly sunny.2 mph49%29.92 "HgN/A
11:00 AM91 °FScattered clouds.6 mph52%29.92 "HgN/A
10:00 AM90 °FSunny.5 mph63%29.92 "Hg10 mi
9:00 AM86 °FSunny.7 mph66%29.92 "Hg10 mi
Weather by CustomWeather, © 2016

See weather overviewHow to use our weather pages